星链-2056 (STARLINK-2056 )

导读

STARLINK-2056是美国SpaceX公司星链项目v1.5批次卫星,于2021年2月16日发射,隶属于SpaceX主导的星链低轨卫星互联网星座。该卫星运行在近地轨道,轨道近地点约477公里、远地点约478公里,倾角53.157°,周期约94.16分钟,作为星链星座组成部分,为全球提供高速低延迟的宽带互联网接入服务,目前仍在轨正常工作。

基本信息
目录编号:
47665
目录名称:
STARLINK-2056
国际标识:
2021-012AX
轨道中心:
EARTH
卫星名称:
星链-2056
卫星全名:
星链-2056 (STARLINK-2056 )
卫星状态:
已陨落 最后检测时间 2025-03-04
发射日期:
2021-02-16 UTC
国别 :
美国 (US)
星等 :
--
该卫星已列入 空间交会检测服务 Space Conjunction Data Service (SCDS) ,当前飞行风险评估等级: 无高风险
轨道信息
数据来源 国际轨道数据
星历时间: 2025-03-04T05:24:41+0800
轨道信息已过期556天
半长轴: 6539.373km
偏心率: 0.0004863
轨道倾角: 53.036°
近地点辐角 288.689°
升交点赤经 226.975°
平近点角 192.028°
近地点: 158.057km
远地点: 164.419km
周期: 87.713分钟
每日圈数: 16.417183
详细信息
固有亮度:
5
最大亮度:
2.5
卫星平台:
Starlink V1.0
覆盖范围:
全球
运营商:
太空探索技术公司
运营商所在国:
美国
制造商(研发单位):
太空探索技术公司
制造商所在国:
美国
使用方式:
暂无
卫星简介
星链(Starlink)计划是由太空探索技术公司(SpaceX)提出的一个巨型低轨卫星互联网星座项目,计划在2019年至2024年间在太空搭建由约1.2万颗卫星组成的“星链”网络,其中1584颗将部署在地球上空550千米处的近地轨道,并从2020年开始工作。该卫星仍在工作。
与全量物体交会距离演化趋势
与全量物体交会风险概率演化趋势